Time,TemperatureF,DewpointF,PressureIn,WindDirection,WindDirectionDegrees,WindSpeedMPH,WindSpeedGustMPH,Humidity,HourlyPrecipIn,Conditions,Clouds,dailyrainin,SoftwareType,DateUTC
2013-05-07 00:08:00,46.0,41.0,29.74,South,179,0.0,0.0,82,0.00,,,0.00,weatherlink.com 1.10,2013-05-07 07:08:00,
2013-05-07 00:23:00,44.0,40.0,29.74,South,177,0.0,0.0,84,0.00,,,0.00,weatherlink.com 1.10,2013-05-07 07:23:00,
2013-05-07 00:38:00,43.5,40.0,29.75,South,177,0.0,0.0,86,0.00,,,0.00,weatherlink.com 1.10,2013-05-07 07:38:00,
2013-05-07 00:53:00,42.1,39.0,29.75,South,177,0.0,0.0,88,0.00,,,0.00,weatherlink.com 1.10,2013-05-07 07:53:00,
2013-05-07 01:09:00,41.1,38.0,29.75,South,177,0.0,0.0,89,0.00,,,0.00,weatherlink.com 1.10,2013-05-07 08:09:00,
2013-05-07 01:24:00,41.4,38.0,29.75,South,177,0.0,0.0,89,0.00,,,0.00,weatherlink.com 1.10,2013-05-07 08:24:00,
2013-05-07 01:39:00,41.8,39.0,29.75,South,177,0.0,0.0,89,0.00,,,0.00,weatherlink.com 1.10,2013-05-07 08:39:00,
2013-05-07 01:54:00,40.7,38.0,29.76,South,177,0.0,0.0,89,0.00,,,0.00,weatherlink.com 1.10,2013-05-07 08:54:00,
2013-05-07 02:09:00,39.3,37.0,29.76,West,276,0.0,1.0,91,0.00,,,0.00,weatherlink.com 1.10,2013-05-07 09:09:00,
2013-05-07 02:24:00,39.0,37.0,29.76,West,277,0.0,0.0,91,0.00,,,0.00,weatherlink.com 1.10,2013-05-07 09:24:00,
2013-05-07 02:39:00,39.1,37.0,29.76,West,277,0.0,0.0,92,0.00,,,0.00,weatherlink.com 1.10,2013-05-07 09:39:00,
2013-05-07 02:54:00,39.1,37.0,29.76,West,277,0.0,0.0,91,0.00,,,0.00,weatherlink.com 1.10,2013-05-07 09:54:00,
2013-05-07 03:09:00,39.3,37.0,29.76,West,277,0.0,0.0,91,0.00,,,0.00,weatherlink.com 1.10,2013-05-07 10:09:00,
2013-05-07 03:24:00,40.6,39.0,29.77,ENE,76,3.0,3.0,93,0.00,,,0.00,weatherlink.com 1.10,2013-05-07 10:24:00,
2013-05-07 03:39:00,47.0,40.0,29.77,East,99,3.0,5.0,76,0.00,,,0.00,weatherlink.com 1.10,2013-05-07 10:39:00,
2013-05-07 03:54:00,48.1,39.0,29.77,NE,51,2.0,6.0,71,0.00,,,0.00,weatherlink.com 1.10,2013-05-07 10:54:00,
2013-05-07 04:09:00,49.0,39.0,29.77,ENE,65,2.0,3.0,68,0.00,,,0.00,weatherlink.com 1.10,2013-05-07 11:09:00,
2013-05-07 04:24:00,48.9,38.0,29.77,ENE,70,3.0,3.0,67,0.00,,,0.00,weatherlink.com 1.10,2013-05-07 11:24:00,
2013-05-07 04:39:00,47.9,39.0,29.78,ENE,72,4.0,6.0,70,0.00,,,0.00,weatherlink.com 1.10,2013-05-07 11:39:00,
2013-05-07 04:54:00,47.7,39.0,29.78,NE,43,3.0,4.0,71,0.00,,,0.00,weatherlink.com 1.10,2013-05-07 11:54:00,
2013-05-07 05:09:00,48.9,38.0,29.78,East,88,1.0,5.0,67,0.00,,,0.00,weatherlink.com 1.10,2013-05-07 12:09:00,
2013-05-07 05:24:00,47.7,38.0,29.79,NE,42,4.0,6.0,70,0.00,,,0.00,weatherlink.com 1.10,2013-05-07 12:24:00,
2013-05-07 05:39:00,47.5,38.0,29.79,NE,44,2.0,4.0,69,0.00,,,0.00,weatherlink.com 1.10,2013-05-07 12:39:00,
2013-05-07 05:54:00,47.1,38.0,29.80,NE,46,2.0,3.0,71,0.00,,,0.00,weatherlink.com 1.10,2013-05-07 12:54:00,
2013-05-07 06:09:00,47.5,38.0,29.80,ENE,72,4.0,5.0,70,0.00,,,0.00,weatherlink.com 1.10,2013-05-07 13:09:00,
2013-05-07 06:24:00,49.0,39.0,29.80,ENE,74,3.0,6.0,68,0.00,,,0.00,weatherlink.com 1.10,2013-05-07 13:24:00,
2013-05-07 06:39:00,50.6,40.0,29.80,East,82,3.0,6.0,66,0.00,,,0.00,weatherlink.com 1.10,2013-05-07 13:39:00,
2013-05-07 06:54:00,52.1,41.0,29.81,East,94,6.0,6.0,66,0.00,,,0.00,weatherlink.com 1.10,2013-05-07 13:54:00,
2013-05-07 07:09:00,53.4,41.0,29.81,East,83,3.0,5.0,64,0.00,,,0.00,weatherlink.com 1.10,2013-05-07 14:09:00,
2013-05-07 07:25:00,54.4,41.0,29.82,ENE,70,2.0,6.0,62,0.00,,,0.00,weatherlink.com 1.10,2013-05-07 14:25:00,
2013-05-07 07:40:00,55.3,42.0,29.82,East,91,1.0,6.0,62,0.00,,,0.00,weatherlink.com 1.10,2013-05-07 14:40:00,
2013-05-07 07:55:00,55.8,42.0,29.82,East,88,4.0,6.0,60,0.00,,,0.00,weatherlink.com 1.10,2013-05-07 14:55:00,
2013-05-07 08:10:00,55.7,41.0,29.82,ENE,64,4.0,7.0,58,0.00,,,0.00,weatherlink.com 1.10,2013-05-07 15:10:00,
2013-05-07 08:25:00,56.4,42.0,29.82,ENE,68,3.0,8.0,58,0.00,,,0.00,weatherlink.com 1.10,2013-05-07 15:25:00,
2013-05-07 08:40:00,58.0,42.0,29.82,NE,46,7.0,7.0,56,0.00,,,0.00,weatherlink.com 1.10,2013-05-07 15:40:00,
2013-05-07 08:55:00,58.9,43.0,29.82,NE,42,7.0,8.0,56,0.00,,,0.00,weatherlink.com 1.10,2013-05-07 15:55:00,
2013-05-07 09:10:00,59.4,43.0,29.82,NE,42,5.0,8.0,55,0.00,,,0.00,weatherlink.com 1.10,2013-05-07 16:10:00,
2013-05-07 09:25:00,60.3,44.0,29.82,NE,39,8.0,9.0,55,0.00,,,0.00,weatherlink.com 1.10,2013-05-07 16:25:00,
2013-05-07 09:40:00,61.4,44.0,29.82,NE,49,6.0,8.0,53,0.00,,,0.00,weatherlink.com 1.10,2013-05-07 16:40:00,
2013-05-07 09:55:00,62.4,44.0,29.82,NE,49,4.0,8.0,52,0.00,,,0.00,weatherlink.com 1.10,2013-05-07 16:55:00,
2013-05-07 10:10:00,63.7,43.0,29.82,ENE,59,5.0,7.0,47,0.00,,,0.00,weatherlink.com 1.10,2013-05-07 17:10:00,
2013-05-07 10:25:00,64.9,43.0,29.82,ESE,105,1.0,5.0,46,0.00,,,0.00,weatherlink.com 1.10,2013-05-07 17:25:00,
2013-05-07 10:40:00,66.7,48.0,29.82,SSW,203,0.0,3.0,52,0.00,,,0.00,weatherlink.com 1.10,2013-05-07 17:40:00,
2013-05-07 10:55:00,67.2,46.0,29.81,WSW,246,2.0,5.0,47,0.00,,,0.00,weatherlink.com 1.10,2013-05-07 17:55:00,
2013-05-07 11:10:00,67.8,48.0,29.81,West,260,1.0,5.0,49,0.00,,,0.00,weatherlink.com 1.10,2013-05-07 18:10:00,
2013-05-07 11:25:00,69.0,49.0,29.81,NNW,345,2.0,3.0,49,0.00,,,0.00,weatherlink.com 1.10,2013-05-07 18:25:00,
2013-05-07 11:40:00,70.7,49.0,29.80,West,260,3.0,4.0,46,0.00,,,0.00,weatherlink.com 1.10,2013-05-07 18:40:00,
2013-05-07 11:55:00,71.4,46.0,29.80,WSW,257,3.0,7.0,41,0.00,,,0.00,weatherlink.com 1.10,2013-05-07 18:55:00,
2013-05-07 12:10:00,71.5,51.0,29.80,West,259,3.0,7.0,48,0.00,,,0.00,weatherlink.com 1.10,2013-05-07 19:10:00,
2013-05-07 12:25:00,72.4,45.0,29.80,West,276,5.0,7.0,38,0.00,,,0.00,weatherlink.com 1.10,2013-05-07 19:25:00,
2013-05-07 12:40:00,72.6,49.0,29.80,WNW,290,5.0,9.0,44,0.00,,,0.00,weatherlink.com 1.10,2013-05-07 19:40:00,
2013-05-07 12:56:00,72.9,48.0,29.79,WNW,290,6.0,9.0,42,0.00,,,0.00,weatherlink.com 1.10,2013-05-07 19:56:00,
2013-05-07 13:11:00,73.3,47.0,29.79,WNW,288,9.0,11.0,40,0.00,,,0.00,weatherlink.com 1.10,2013-05-07 20:11:00,
2013-05-07 13:26:00,73.8,49.0,29.78,WNW,291,3.0,10.0,41,0.00,,,0.00,weatherlink.com 1.10,2013-05-07 20:26:00,
2013-05-07 13:41:00,74.9,48.0,29.78,West,271,6.0,10.0,39,0.00,,,0.00,weatherlink.com 1.10,2013-05-07 20:41:00,
2013-05-07 13:56:00,75.2,51.0,29.78,West,278,8.0,10.0,43,0.00,,,0.00,weatherlink.com 1.10,2013-05-07 20:56:00,
2013-05-07 14:11:00,75.6,49.0,29.78,NW,320,8.0,11.0,39,0.00,,,0.00,weatherlink.com 1.10,2013-05-07 21:11:00,
2013-05-07 14:26:00,75.7,45.0,29.78,West,276,11.0,11.0,34,0.00,,,0.00,weatherlink.com 1.10,2013-05-07 21:26:00,
2013-05-07 14:41:00,75.6,45.0,29.78,WNW,284,8.0,10.0,34,0.00,,,0.00,weatherlink.com 1.10,2013-05-07 21:41:00,
2013-05-07 14:56:00,76.1,47.0,29.78,WNW,285,3.0,8.0,36,0.00,,,0.00,weatherlink.com 1.10,2013-05-07 21:56:00,
2013-05-07 15:11:00,75.8,51.0,29.77,WSW,238,7.0,9.0,42,0.00,,,0.00,weatherlink.com 1.10,2013-05-07 22:11:00,
2013-05-07 15:26:00,75.9,49.0,29.77,WSW,257,8.0,11.0,39,0.00,,,0.00,weatherlink.com 1.10,2013-05-07 22:26:00,
2013-05-07 15:41:00,76.0,49.0,29.77,WSW,255,5.0,11.0,38,0.00,,,0.00,weatherlink.com 1.10,2013-05-07 22:41:00,
2013-05-07 15:56:00,75.8,48.0,29.76,WSW,250,11.0,12.0,38,0.00,,,0.00,weatherlink.com 1.10,2013-05-07 22:56:00,
2013-05-07 16:11:00,76.0,48.0,29.76,WSW,238,9.0,11.0,37,0.00,,,0.00,weatherlink.com 1.10,2013-05-07 23:11:00,
2013-05-07 16:26:00,76.4,50.0,29.76,WSW,240,9.0,11.0,39,0.00,,,0.00,weatherlink.com 1.10,2013-05-07 23:26:00,
2013-05-07 16:41:00,76.2,49.0,29.76,SW,232,8.0,11.0,38,0.00,,,0.00,weatherlink.com 1.10,2013-05-07 23:41:00,
2013-05-07 16:56:00,75.7,48.0,29.76,WSW,248,6.0,12.0,38,0.00,,,0.00,weatherlink.com 1.10,2013-05-07 23:56:00,
2013-05-07 17:11:00,75.5,47.0,29.76,WSW,242,8.0,11.0,37,0.00,,,0.00,weatherlink.com 1.10,2013-05-08 00:11:00,
2013-05-07 17:26:00,75.7,45.0,29.76,SW,229,7.0,11.0,34,0.00,,,0.00,weatherlink.com 1.10,2013-05-08 00:26:00,
2013-05-07 17:41:00,75.6,47.0,29.76,WSW,243,6.0,8.0,37,0.00,,,0.00,weatherlink.com 1.10,2013-05-08 00:41:00,
2013-05-07 17:56:00,75.3,46.0,29.75,WSW,239,9.0,9.0,36,0.00,,,0.00,weatherlink.com 1.10,2013-05-08 00:56:00,
2013-05-07 18:11:00,74.6,46.0,29.75,WSW,246,6.0,12.0,36,0.00,,,0.00,weatherlink.com 1.10,2013-05-08 01:11:00,
2013-05-07 18:26:00,74.1,48.0,29.76,SW,236,3.0,7.0,40,0.00,,,0.00,weatherlink.com 1.10,2013-05-08 01:26:00,
2013-05-07 18:41:00,71.7,48.0,29.76,West,260,1.0,5.0,43,0.00,,,0.00,weatherlink.com 1.10,2013-05-08 01:41:00,
2013-05-07 18:56:00,68.5,48.0,29.76,West,274,0.0,2.0,49,0.00,,,0.00,weatherlink.com 1.10,2013-05-08 01:56:00,
2013-05-07 19:11:00,68.4,47.0,29.76,West,271,0.0,1.0,46,0.00,,,0.00,weatherlink.com 1.10,2013-05-08 02:11:00,
2013-05-07 19:26:00,68.8,49.0,29.77,North,4,1.0,3.0,50,0.00,,,0.00,weatherlink.com 1.10,2013-05-08 02:26:00,
2013-05-07 19:41:00,66.5,48.0,29.77,ENE,76,0.0,1.0,52,0.00,,,0.00,weatherlink.com 1.10,2013-05-08 02:41:00,
2013-05-07 19:56:00,64.9,45.0,29.78,NE,56,3.0,10.0,48,0.00,,,0.00,weatherlink.com 1.10,2013-05-08 02:56:00,
2013-05-07 20:11:00,68.6,45.0,29.79,East,86,1.0,3.0,43,0.00,,,0.00,weatherlink.com 1.10,2013-05-08 03:11:00,
2013-05-07 20:26:00,62.8,44.0,29.80,ESE,121,1.0,4.0,50,0.00,,,0.00,weatherlink.com 1.10,2013-05-08 03:26:00,
2013-05-07 20:41:00,63.7,42.0,29.80,ENE,64,1.0,3.0,45,0.00,,,0.00,weatherlink.com 1.10,2013-05-08 03:41:00,
2013-05-07 20:56:00,64.7,42.0,29.80,NNE,33,1.0,4.0,43,0.00,,,0.00,weatherlink.com 1.10,2013-05-08 03:56:00,
2013-05-07 21:11:00,63.9,41.0,29.81,ENE,65,1.0,5.0,43,0.00,,,0.00,weatherlink.com 1.10,2013-05-08 04:11:00,
2013-05-07 21:26:00,61.8,43.0,29.82,SW,217,0.0,2.0,50,0.00,,,0.00,weatherlink.com 1.10,2013-05-08 04:26:00,
2013-05-07 21:41:00,55.6,42.0,29.82,East,98,2.0,3.0,61,0.00,,,0.00,weatherlink.com 1.10,2013-05-08 04:41:00,
2013-05-07 21:56:00,62.4,40.0,29.83,East,97,1.0,5.0,44,0.00,,,0.00,weatherlink.com 1.10,2013-05-08 04:56:00,
2013-05-07 22:11:00,61.7,41.0,29.83,ESE,103,2.0,4.0,46,0.00,,,0.00,weatherlink.com 1.10,2013-05-08 05:11:00,
2013-05-07 22:26:00,61.3,41.0,29.84,ENE,74,2.0,3.0,48,0.00,,,0.00,weatherlink.com 1.10,2013-05-08 05:26:00,
2013-05-07 22:41:00,59.3,40.0,29.84,East,84,2.0,3.0,50,0.00,,,0.00,weatherlink.com 1.10,2013-05-08 05:41:00,
2013-05-07 22:56:00,60.1,41.0,29.84,ENE,68,0.0,6.0,49,0.00,,,0.00,weatherlink.com 1.10,2013-05-08 05:56:00,
2013-05-07 23:11:00,57.5,42.0,29.86,East,96,2.0,3.0,56,0.00,,,0.00,weatherlink.com 1.10,2013-05-08 06:11:00,
2013-05-07 23:26:00,57.2,41.0,29.86,ENE,71,2.0,3.0,55,0.00,,,0.00,weatherlink.com 1.10,2013-05-08 06:26:00,
2013-05-07 23:41:00,57.9,41.0,29.86,NE,43,3.0,5.0,54,0.00,,,0.00,weatherlink.com 1.10,2013-05-08 06:41:00,
2013-05-07 23:56:00,57.7,41.0,29.87,East,91,0.0,2.0,54,0.00,,,0.00,weatherlink.com 1.10,2013-05-08 06:56:00,